Temp
-6 -5 -5 -5 -5 -5 -5 -4 -4 -4 -4 -4 -4 -4 -4 -4 -4 -4 -5 -5 -5 -6 -6 -5 -4 -5 -4 -4 -4 -4 -4 -4 -4 -4 -4 -3 -4 -4 -4 -4 -4 -4 -4 -5 -5
-6 -6 -6 -5 -5 -5 -5 -4 -4 -4 -4 -4 -4 -4 -4 -3 -4 -4 -5 -5 -5 -6 -6 -5 -4 -5 -5 -5 -4 -4 -4 -4 -4 -4 -4 -4 -4 -4 -5 -4 -4 -4 -4 -5 -5
-6 -6 -6 -6 -5 -5 -5 -5 -5 -4 -4 -4 -4 -4 -4 -4 -4 -4 -4 -5 -5 -5 -6 -6 -5 -6 -6 -4 -5 -4 -4 -4 -4 -5 -4 -5 -4 -4 -5 -5 -5 -4 -4 -4 -5
-6 -6 -6 -6 -6 -5 -5 -5 -5 -5 -4 -4 -4 -4 -4 -4 -4 -3 -4 -4 -5 -6 -6 -6 -6 -5 -6 -6 -5 -5 -5 -4 -5 -4 -4 -4 -4 -4 -4 -5 -4 -5 -5 -5 -5
-6 -6 -6 -6 -6 -6 -5 -5 -5 -5 -5 -5 -5 -4 -4 -4 -4 -5 -4 -4 -5 -6 -6 -6 -6 -7 -6 -5 -6 -5 -6 -4 -4 -4 -5 -4 -4 -4 -4 -4 -5 -5 -5 -5 -5
-6 -6 -6 -6 -6 -6 -5 -5 -5 -5 -5 -5 -4 -5 -4 -5 -4 -4 -4 -4 -5 -5 -6 -7 -7 -7 -6 -5 -6 -5 -4 -4 -4 -4 -5 -5 -5 -4 -5 -4 -4 -4 -4 -5 -5
-7 -6 -6 -6 -6 -6 -6 -5 -5 -5 -5 -5 -5 -4 -5 -6 -4 -4 -4 -4 -4 -5 -6 -7 -7 -8 -7 -5 -7 -6 -5 -4 -5 -6 -5 -6 -5 -4 -4 -4 -3 -4 -4 -5 -5
-7 -7 -7 -6 -6 -6 -6 -6 -5 -5 -5 -5 -5 -5 -5 -6 -4 -4 -5 -4 -5 -5 -6 -7 -7 -8 -7 -6 -6 -6 -5 -5 -6 -5 -6 -6 -5 -4 -4 -4 -4 -3 -5 -5 -5
-7 -7 -7 -7 -7 -6 -6 -6 -6 -5 -5 -5 -5 -5 -6 -5 -5 -5 -6 -5 -5 -5 -6 -6 -6 -6 -8 -6 -6 -7 -7 -5 -6 -6 -7 -7 -6 -5 -5 -4 -4 -4 -5 -5 -5
-8 -8 -7 -7 -7 -7 -7 -6 -6 -6 -6 -5 -5 -5 -5 -5 -5 -4 -6 -6 -5 -5 -6 -6 -6 -5 -8 -7 -8 -6 -7 -6 -6 -7 -6 -6 -5 -5 -4 -5 -4 -4 -5 -6 -6
-8 -8 -8 -7 -7 -7 -7 -7 -7 -6 -6 -6 -5 -5 -5 -5 -5 -5 -5 -6 -5 -5 -5 -5 -5 -5 -8 -8 -8 -7 -6 -7 -7 -7 -7 -7 -5 -4 -4 -5 -5 -4 -4 -5 -6
-9 -9 -9 -8 -8 -8 -7 -7 -7 -6 -6 -6 -6 -6 -6 -5 -5 -6 -5 -6 -5 -5 -5 -5 -5 -5 -7 -8 -8 -7 -7 -7 -8 -7 -8 -6 -6 -6 -7 -8 -7 -7 -5 -5 -5
-9 -9 -9 -9 -9 -9 -8 -8 -7 -7 -6 -7 -7 -6 -7 -6 -6 -6 -6 -6 -6 -5 -5 -5 -5 -6 -7 -7 -8 -8 -7 -6 -7 -7 -7 -8 -7 -6 -7 -7 -7 -7 -5 -4 -5
-12 -11 -11 -11 -11 -10 -10 -9 -8 -7 -7 -8 -7 -7 -7 -7 -6 -6 -6 -6 -6 -6 -6 -6 -6 -6 -7 -7 -8 -8 -7 -7 -8 -7 -7 -8 -8 -7 -7 -6 -6 -5 -5 -5 -5
-14 -14 -13 -13 -13 -12 -12 -11 -10 -9 -9 -9 -8 -8 -8 -7 -7 -8 -8 -7 -6 -7 -6 -5 -6 -6 -6 -7 -8 -8 -8 -8 -7 -8 -7 -7 -8 -6 -7 -7 -5 -5 -5 -4 -5
-15 -15 -15 -15 -15 -14 -14 -12 -12 -11 -11 -11 -11 -11 -9 -8 -8 -9 -8 -7 -7 -7 -7 -6 -7 -6 -7 -7 -8 -8 -8 -9 -9 -9 -6 -6 -7 -7 -7 -7 -6 -6 -5 -5 -5
-15 -15 -15 -15 -15 -15 -15 -14 -13 -12 -14 -14 -12 -11 -10 -10 -9 -9 -8 -8 -8 -7 -6 -6 -7 -7 -7 -7 -8 -8 -9 -9 -9 -9 -6 -8 -6 -6 -6 -7 -7 -6 -5 -5 -5
-16 -16 -16 -16 -16 -16 -15 -15 -14 -15 -15 -15 -14 -13 -12 -12 -11 -11 -10 -9 -8 -8 -8 -7 -7 -7 -7 -7 -7 -8 -9 -8 -9 -8 -7 -8 -8 -5 -7 -7 -7 -6 -7 -5 -5
-16 -16 -16 -16 -16 -16 -16 -15 -16 -17 -16 -15 -15 -15 -15 -15 -13 -13 -12 -10 -10 -9 -8 -8 -7 -8 -9 -8 -8 -8 -8 -8 -9 -10 -9 -8 -8 -7 -7 -7 -7 -7 -8 -5 -6
-16 -17 -17 -17 -17 -16 -16 -16 -17 -17 -16 -15 -16 -15 -16 -15 -15 -13 -13 -13 -12 -11 -10 -9 -9 -8 -8 -10 -9 -9 -8 -9 -9 -9 -9 -8 -8 -8 -7 -7 -8 -7 -6 -6 -6
-16 -17 -17 -17 -17 -17 -17 -17 -17 -17 -16 -15 -16 -16 -15 -15 -15 -14 -15 -14 -14 -13 -12 -11 -9 -9 -9 -10 -8 -9 -9 -9 -10 -10 -9 -7 -7 -8 -7 -7 -7 -8 -7 -7 -5
-16 -17 -17 -17 -17 -17 -17 -17 -17 -17 -16 -15 -15 -16 -15 -16 -15 -15 -15 -15 -15 -14 -13 -12 -11 -10 -9 -9 -10 -10 -10 -10 -10 -10 -10 -8 -8 -9 -9 -8 -8 -7 -7 -6 -7
-16 -17 -18 -18 -18 -18 -18 -18 -18 -17 -16 -16 -15 -15 -16 -16 -16 -15 -15 -15 -15 -15 -14 -14 -12 -11 -10 -10 -11 -10 -10 -10 -10 -10 -10 -9 -8 -8 -9 -9 -8 -6 -6 -7 -7
-16 -17 -18 -18 -18 -18 -18 -18 -18 -18 -18 -17 -17 -17 -16 -16 -16 -16 -15 -15 -15 -15 -15 -14 -14 -12 -11 -10 -11 -11 -10 -10 -10 -10 -9 -9 -8 -9 -9 -8 -7 -8 -9 -7 -8
-16 -17 -18 -18 -18 -18 -18 -18 -18 -17 -17 -17 -17 -17 -17 -16 -16 -16 -16 -15 -15 -15 -15 -15 -14 -14 -13 -12 -12 -12 -11 -11 -10 -11 -11 -10 -9 -10 -9 -9 -9 -8 -7 -8 -7
-16 -16 -17 -18 -18 -18 -18 -17 -18 -18 -18 -18 -18 -18 -18 -17 -17 -17 -16 -16 -16 -15 -15 -15 -14 -14 -14 -12 -12 -12 -11 -11 -11 -11 -11 -11 -10 -10 -9 -8 -9 -8 -7 -7 -7
-16 -16 -17 -17 -17 -18 -18 -18 -18 -18 -19 -18 -18 -18 -18 -18 -17 -18 -17 -17 -16 -15 -15 -14 -15 -14 -14 -13 -12 -12 -11 -11 -11 -11 -11 -11 -10 -9 -10 -8 -8 -8 -8 -8 -7
Height
5868 5869 5870 5871 5872 5874 5875 5876 5878 5880 5881 5882 5883 5884 5885 5886 5888 5889 5891 5893 5893 5895 5898 5900 5903 5902 5899 5902 5904 5902 5906 5907 5907 5908 5909 5909 5912 5915 5916 5916 5917 5917 5919 5920 5919
5867 5868 5868 5869 5870 5871 5872 5873 5874 5876 5878 5879 5881 5882 5883 5884 5886 5888 5889 5890 5892 5894 5896 5899 5900 5901 5901 5901 5904 5902 5903 5905 5904 5906 5908 5909 5911 5914 5917 5916 5917 5918 5918 5920 5920
5865 5866 5866 5866 5867 5868 5870 5871 5872 5874 5875 5876 5878 5879 5881 5882 5884 5885 5886 5889 5890 5893 5895 5896 5898 5899 5900 5901 5900 5901 5903 5902 5903 5906 5906 5906 5908 5911 5915 5916 5918 5918 5918 5920 5921
5863 5864 5864 5864 5864 5865 5866 5868 5869 5870 5872 5874 5875 5876 5877 5880 5883 5882 5885 5886 5889 5891 5893 5894 5896 5897 5900 5899 5898 5900 5902 5902 5902 5905 5905 5900 5907 5911 5910 5913 5915 5915 5918 5919 5921
5859 5860 5860 5861 5861 5862 5862 5863 5864 5866 5868 5870 5871 5873 5875 5878 5879 5879 5881 5884 5887 5888 5890 5892 5894 5896 5896 5898 5898 5899 5900 5902 5904 5906 5908 5906 5901 5907 5909 5910 5913 5916 5918 5920 5921
5854 5854 5855 5855 5856 5857 5858 5859 5860 5861 5863 5866 5867 5869 5873 5875 5871 5875 5876 5879 5882 5886 5888 5891 5892 5891 5893 5894 5894 5897 5901 5903 5902 5902 5907 5906 5905 5897 5904 5909 5912 5915 5917 5920 5921
5848 5848 5848 5849 5850 5850 5851 5853 5855 5856 5858 5860 5862 5866 5870 5867 5868 5872 5874 5877 5880 5882 5886 5887 5887 5890 5894 5894 5894 5897 5898 5901 5901 5904 5904 5904 5903 5901 5899 5908 5909 5911 5917 5919 5921
5841 5841 5841 5842 5842 5843 5844 5846 5848 5850 5851 5854 5856 5861 5865 5859 5863 5869 5870 5873 5875 5880 5882 5883 5885 5887 5891 5894 5895 5894 5897 5900 5901 5901 5902 5902 5901 5902 5903 5904 5909 5910 5915 5919 5921
5833 5832 5832 5833 5834 5835 5836 5837 5839 5842 5845 5847 5850 5855 5857 5855 5860 5863 5866 5868 5870 5873 5877 5879 5880 5884 5891 5892 5896 5895 5896 5900 5901 5902 5903 5901 5898 5901 5901 5901 5910 5910 5913 5917 5921
5825 5824 5823 5824 5824 5825 5827 5829 5830 5833 5836 5839 5844 5849 5849 5848 5852 5856 5859 5861 5866 5868 5870 5872 5876 5883 5888 5891 5893 5892 5898 5897 5900 5903 5901 5900 5898 5899 5902 5907 5907 5908 5909 5913 5919
5815 5814 5813 5813 5814 5814 5817 5819 5822 5824 5826 5830 5835 5839 5842 5843 5847 5851 5855 5855 5859 5862 5866 5870 5872 5878 5886 5890 5888 5893 5893 5893 5898 5901 5902 5900 5895 5896 5901 5905 5907 5909 5910 5908 5915
5804 5803 5801 5801 5801 5802 5803 5807 5808 5813 5818 5820 5825 5831 5831 5835 5839 5843 5847 5849 5853 5857 5862 5863 5865 5877 5881 5883 5885 5888 5888 5891 5895 5900 5901 5902 5899 5896 5897 5901 5906 5908 5911 5910 5910
5791 5790 5788 5787 5788 5789 5791 5792 5796 5800 5808 5810 5813 5822 5820 5827 5829 5834 5836 5841 5845 5850 5854 5856 5867 5871 5875 5877 5880 5885 5885 5891 5894 5898 5899 5901 5901 5901 5904 5905 5907 5908 5910 5911 5911
5776 5774 5773 5772 5775 5775 5777 5779 5782 5789 5795 5799 5801 5807 5809 5815 5822 5824 5827 5832 5838 5843 5847 5849 5859 5861 5866 5871 5876 5881 5887 5886 5889 5894 5896 5896 5900 5901 5901 5904 5907 5910 5910 5912 5911
5766 5762 5760 5759 5759 5761 5764 5765 5770 5777 5782 5787 5788 5794 5796 5804 5813 5817 5818 5822 5828 5833 5838 5844 5851 5855 5859 5865 5870 5882 5884 5883 5885 5888 5890 5893 5897 5899 5901 5902 5906 5910 5912 5911 5911
5759 5754 5749 5748 5749 5749 5751 5755 5760 5768 5771 5771 5773 5777 5785 5790 5798 5802 5806 5812 5817 5823 5827 5834 5841 5845 5853 5859 5864 5877 5875 5877 5879 5882 5882 5890 5891 5896 5898 5901 5907 5909 5909 5909 5909
5751 5747 5742 5740 5740 5741 5743 5747 5753 5758 5757 5754 5758 5764 5772 5779 5784 5789 5795 5801 5807 5813 5818 5823 5832 5837 5844 5850 5856 5866 5869 5870 5873 5874 5883 5884 5887 5891 5894 5897 5904 5907 5908 5906 5906
5747 5741 5737 5735 5734 5735 5737 5741 5744 5745 5745 5745 5751 5755 5763 5767 5774 5778 5783 5789 5797 5802 5808 5814 5822 5827 5835 5841 5850 5858 5862 5865 5867 5870 5879 5880 5881 5890 5891 5893 5898 5901 5905 5907 5905
5743 5738 5733 5730 5729 5730 5732 5733 5736 5734 5735 5742 5746 5750 5754 5755 5762 5765 5772 5781 5787 5793 5798 5804 5813 5819 5827 5837 5843 5850 5853 5864 5863 5866 5871 5876 5880 5883 5886 5888 5892 5894 5902 5903 5905
5740 5735 5730 5727 5725 5726 5726 5726 5726 5730 5732 5734 5737 5742 5747 5750 5753 5756 5761 5768 5773 5781 5788 5797 5801 5809 5821 5822 5831 5839 5851 5852 5855 5860 5864 5872 5874 5876 5882 5885 5886 5886 5893 5898 5905
5738 5732 5729 5727 5725 5723 5722 5722 5723 5725 5729 5730 5732 5735 5740 5744 5749 5752 5754 5760 5764 5769 5777 5784 5791 5803 5805 5811 5825 5832 5838 5843 5849 5852 5858 5866 5870 5873 5879 5879 5880 5882 5883 5887 5890
5733 5728 5723 5721 5721 5720 5720 5720 5720 5720 5723 5727 5730 5733 5735 5738 5745 5747 5750 5753 5757 5764 5768 5773 5781 5787 5797 5809 5816 5822 5829 5835 5838 5846 5850 5858 5867 5870 5873 5871 5870 5876 5878 5881 5886
5728 5724 5718 5716 5717 5717 5718 5718 5716 5719 5719 5721 5725 5729 5733 5734 5740 5741 5743 5745 5747 5754 5760 5764 5769 5777 5788 5797 5802 5811 5821 5827 5832 5838 5841 5850 5861 5863 5867 5864 5862 5869 5873 5873 5863
5725 5719 5714 5713 5712 5713 5712 5713 5714 5715 5713 5717 5720 5722 5724 5725 5730 5734 5737 5742 5743 5746 5752 5758 5763 5768 5779 5793 5798 5804 5811 5818 5823 5826 5835 5841 5854 5854 5859 5862 5863 5867 5865 5869 5872
5724 5718 5712 5708 5707 5708 5707 5707 5708 5706 5705 5709 5709 5710 5712 5715 5717 5722 5730 5737 5742 5744 5746 5752 5758 5763 5770 5781 5786 5793 5801 5807 5813 5818 5823 5835 5843 5846 5848 5851 5855 5861 5864 5867 5871
5724 5716 5710 5706 5704 5703 5701 5701 5701 5700 5699 5699 5701 5701 5701 5704 5707 5713 5719 5726 5733 5738 5741 5745 5752 5757 5764 5774 5778 5786 5791 5798 5802 5808 5816 5825 5829 5837 5838 5846 5848 5856 5861 5866 5869
5725 5717 5710 5705 5702 5701 5698 5696 5695 5693 5691 5689 5690 5692 5691 5693 5698 5703 5709 5716 5725 5731 5737 5741 5745 5749 5757 5764 5771 5778 5786 5790 5794 5801 5810 5814 5820 5825 5831 5837 5841 5848 5854 5858 5860
Wind_Speed
5 6 7 8 9 10 12 12 12 13 13 12 11 11 11 12 12 10 12 15 17 14 15 18 19 14 8 18 15 7 9 18 8 3 7 9 10 8 6 5 4 5 7 9 9
6 7 8 8 8 9 9 9 9 10 12 13 13 12 12 12 14 14 13 15 18 17 15 19 19 14 13 15 13 8 7 16 15 8 6 8 9 8 7 3 2 5 6 8 9
8 9 9 10 10 10 11 12 13 13 12 12 13 15 14 13 14 15 16 17 20 20 17 18 17 13 13 15 3 8 5 5 12 18 21 16 14 13 11 7 5 2 4 7 7
13 13 13 13 13 13 13 13 14 14 14 15 15 14 13 15 15 14 15 15 19 22 21 20 21 21 21 19 6 8 7 7 7 11 12 24 17 9 11 3 1 4 1 4 5
17 17 17 18 18 17 17 16 16 17 16 16 16 16 15 12 13 15 17 17 20 24 23 21 18 14 25 20 8 6 7 7 4 6 6 13 5 12 17 13 7 6 3 5 4
21 21 21 21 21 21 21 21 21 21 19 19 19 17 13 12 24 17 19 20 20 24 27 23 23 22 26 24 20 10 5 2 3 3 3 9 8 18 13 16 10 10 9 9 7
25 25 26 25 25 25 24 24 24 24 24 23 22 19 14 21 22 16 15 17 19 24 29 29 28 27 25 25 15 8 12 7 4 1 3 9 12 15 11 14 13 13 11 11 9
28 29 29 29 29 29 29 28 27 27 26 26 26 22 16 29 23 13 18 19 21 24 29 33 31 28 26 25 19 14 10 7 8 9 3 4 12 10 13 13 15 16 14 12 11
30 31 32 32 32 32 33 33 32 31 29 29 27 24 24 30 24 22 22 22 23 26 29 34 35 31 21 25 17 17 16 15 7 4 11 16 19 15 6 15 16 15 16 12 10
32 33 34 35 35 35 35 35 35 35 34 32 30 28 30 34 31 28 26 29 27 28 31 35 35 29 28 22 18 23 14 8 5 5 13 11 18 14 16 16 11 23 18 15 13
31 34 37 38 39 40 39 38 38 38 37 37 33 31 31 33 33 30 29 32 31 31 30 30 32 30 27 21 26 16 18 8 4 6 11 9 13 19 11 22 13 19 20 22 19
33 33 34 37 39 41 43 43 43 42 39 39 37 33 34 34 35 33 33 35 35 32 30 34 33 25 33 32 27 22 19 12 6 5 9 13 11 16 19 7 5 17 18 19 20
41 41 40 39 38 39 41 42 44 45 42 41 41 36 37 37 36 35 36 37 36 36 35 36 25 27 38 38 35 27 21 14 7 8 7 7 11 11 11 11 7 8 11 15 15
37 37 36 40 42 40 39 41 43 44 44 41 41 39 41 40 40 38 40 38 38 37 37 38 31 33 38 41 39 33 19 18 9 7 9 7 6 12 18 11 12 8 10 8 13
34 33 31 31 35 36 36 38 39 39 38 40 44 42 41 42 38 35 38 40 39 41 42 39 35 35 36 43 40 33 21 20 17 13 17 11 10 9 16 18 14 13 8 9 11
31 28 28 25 25 28 30 33 33 32 26 30 31 32 41 45 42 38 43 43 43 43 44 43 39 40 37 37 44 37 31 28 22 17 19 15 11 9 10 12 18 16 11 11 12
30 25 24 20 21 22 23 22 25 23 24 28 32 36 37 38 44 44 43 44 46 46 47 46 45 44 40 40 44 44 39 31 25 23 14 11 19 7 3 5 3 16 22 18 14
25 22 19 17 18 18 16 17 17 19 30 28 28 28 29 29 34 38 44 47 46 47 47 48 47 49 45 43 41 48 45 40 30 23 13 21 19 11 6 11 11 11 18 14 16
26 20 17 14 13 13 12 14 17 21 33 30 25 21 22 21 23 32 36 43 44 47 50 50 48 48 45 40 41 45 54 46 37 28 23 17 22 23 21 16 18 19 14 11 21
22 18 18 16 12 10 11 16 20 25 37 37 30 31 28 26 26 38 39 34 40 43 47 48 49 48 46 47 42 45 49 49 45 38 33 24 26 25 23 22 20 25 18 10 13
24 17 16 16 14 9 14 18 23 28 36 43 33 33 36 34 30 29 29 32 30 30 44 45 49 45 46 50 47 42 51 51 45 37 41 31 31 25 23 25 25 26 24 19 30
27 20 17 17 13 11 9 13 22 31 32 41 42 36 37 37 33 29 31 31 25 26 35 40 46 48 48 45 46 48 52 51 48 42 40 39 35 25 21 28 30 34 35 29 28
29 19 14 14 11 11 11 18 22 25 28 33 41 45 43 39 33 37 38 38 33 28 31 33 43 47 47 45 49 51 51 56 50 47 46 43 42 37 32 36 28 36 37 37 30
31 20 17 15 14 11 13 17 23 23 30 32 30 31 36 44 44 39 42 40 40 35 38 36 39 43 47 43 47 48 53 57 54 50 49 48 45 38 36 35 32 26 26 24 27
32 25 16 17 13 12 15 16 17 21 25 30 31 29 29 31 42 48 47 48 45 41 44 40 38 41 42 43 51 50 49 61 60 53 46 43 46 34 38 33 32 35 39 24 32
31 29 21 17 17 11 15 15 16 20 24 27 26 28 29 30 31 32 49 50 46 49 48 47 41 39 38 41 53 53 52 47 51 59 47 39 49 47 47 43 38 29 35 32 25
28 29 23 18 13 10 15 19 20 23 26 28 29 28 32 31 34 33 45 49 43 45 47 46 45 41 41 37 53 55 52 46 46 50 49 43 48 52 55 50 50 37 31 25 20
Wind_Direction
223 220 222 220 217 218 224 225 225 222 221 224 220 215 211 209 203 201 190 184 182 180 181 167 159 171 187 196 202 171 106 175 185 244 196 167 138 116 83 108 83 57 77 86 69
229 230 231 230 226 224 222 222 223 226 225 225 226 218 215 212 205 205 199 187 186 182 187 174 186 179 211 209 206 167 148 157 142 251 221 198 172 128 120 101 87 50 87 89 71
250 249 250 246 243 238 231 229 225 223 220 218 223 226 220 218 209 212 206 189 186 185 189 192 191 190 220 215 203 174 114 200 226 198 210 219 194 149 134 166 166 147 69 93 84
256 255 255 253 253 252 249 242 237 231 225 224 223 220 221 222 222 220 213 204 191 186 189 197 200 192 207 209 188 139 126 200 227 222 249 215 179 150 146 217 151 125 52 107 84
261 258 258 256 254 254 254 253 249 243 234 232 231 228 223 223 230 219 213 211 203 189 192 197 199 214 231 225 185 181 192 186 169 138 234 262 196 196 185 189 202 209 203 165 131
262 261 258 256 254 252 250 250 250 249 244 235 233 233 225 218 226 212 214 208 208 198 193 197 193 210 220 219 213 219 189 142 78 153 159 262 298 198 204 189 176 165 175 178 152
266 262 260 257 255 253 253 250 248 248 246 242 239 231 216 227 230 212 219 223 219 207 197 197 208 206 221 222 200 222 231 202 188 216 268 273 258 281 197 181 185 156 161 172 162
270 268 264 260 257 256 253 251 250 246 246 245 242 236 217 237 234 212 215 217 214 222 206 205 207 208 218 223 198 209 226 189 191 233 273 259 252 238 227 203 205 162 167 173 172
269 268 265 263 259 257 256 253 251 249 247 245 244 239 226 237 237 219 217 220 215 214 215 212 216 209 214 220 213 211 213 197 210 320 333 303 302 247 213 247 193 175 170 180 179
272 268 264 262 260 258 255 253 253 250 247 245 240 236 231 235 236 221 212 219 217 215 216 217 221 212 199 211 209 216 205 230 242 12 8 337 293 298 242 215 202 185 174 167 181
279 275 271 266 260 258 255 253 251 249 248 245 240 236 236 235 237 236 227 221 221 221 220 222 227 218 198 186 201 203 207 156 95 50 18 353 341 309 249 217 249 207 192 171 181
293 285 278 270 264 260 257 252 250 246 246 247 244 238 236 231 235 233 236 230 230 226 220 223 221 210 202 197 198 196 203 183 153 78 64 98 64 48 35 146 193 174 199 186 181
293 285 278 272 268 263 258 254 250 247 241 247 242 237 238 230 229 229 228 232 229 228 224 227 221 215 206 206 204 207 214 197 176 136 111 157 157 120 82 167 122 172 190 187 180
304 292 281 270 264 261 257 256 252 248 244 237 241 235 236 234 231 229 229 229 229 227 226 228 217 215 207 210 207 205 206 199 223 219 198 168 183 140 117 138 127 140 176 174 159
307 301 292 277 265 257 254 250 248 247 248 240 239 235 234 236 229 228 229 230 227 226 226 226 219 218 214 210 210 195 213 212 216 241 213 176 169 144 127 139 164 154 182 163 140
312 305 305 274 269 261 251 247 245 242 240 240 236 233 231 231 228 227 227 225 224 222 226 225 218 219 217 214 214 191 202 200 224 223 212 190 192 181 126 157 177 179 181 168 140
320 306 307 283 266 262 255 244 240 233 214 214 219 222 223 225 228 225 225 227 224 225 223 220 218 220 219 212 212 198 202 194 217 224 173 213 215 214 182 36 272 200 207 181 157
330 318 310 299 274 265 255 243 221 206 187 196 208 214 218 221 215 221 222 223 222 223 226 225 217 218 218 216 214 206 198 201 208 229 191 198 209 184 251 267 276 269 195 188 180
334 333 325 312 292 266 255 229 207 203 196 184 183 183 171 185 195 205 219 223 223 223 223 222 220 219 221 224 215 207 206 204 212 220 223 209 207 217 234 238 248 262 197 237 209
331 323 326 340 329 273 243 217 205 203 198 180 181 177 181 193 195 202 209 208 217 221 227 223 222 219 217 218 215 209 204 202 211 218 218 201 199 219 211 227 246 257 256 177 182
339 317 292 287 295 276 233 220 206 203 205 202 192 186 189 200 201 207 206 204 205 207 218 223 224 217 216 219 214 210 206 206 208 214 219 202 198 216 214 221 225 245 252 228 183
339 331 310 292 281 283 286 226 219 214 217 212 209 203 200 205 204 209 213 210 206 204 216 220 220 220 218 215 217 212 207 205 208 208 213 207 201 217 236 219 232 236 236 236 189
343 338 305 285 280 275 263 225 231 233 242 229 223 223 222 218 218 222 207 205 197 209 218 224 217 220 215 208 211 212 212 208 206 210 213 212 204 212 221 245 249 239 238 238 217
354 348 320 301 287 280 249 228 232 249 247 245 244 248 235 229 221 214 215 214 203 202 211 219 221 220 217 211 203 212 211 210 207 215 213 216 210 225 227 239 247 248 267 215 219
357 354 337 327 312 300 275 259 258 256 252 239 253 254 247 238 235 231 226 215 213 210 212 216 217 220 216 201 200 206 206 209 210 214 219 212 208 215 224 217 232 244 247 256 235
359 358 354 341 339 319 290 291 273 265 259 260 256 258 254 240 235 230 221 219 221 215 219 217 215 222 225 202 200 204 206 205 213 217 215 217 220 212 228 224 231 237 236 251 273
2 1 358 356 351 321 298 296 286 276 271 264 258 254 247 244 238 222 221 223 220 222 220 221 217 216 214 213 203 207 208 212 214 214 213 215 226 218 221 222 231 230 242 223 234